Simultaneous Nadir Overpasses (SNOs) Predictions

Prediction of SNOs between GOES-17 and NOAA-20 Satellite Orbit:

Table of predicted SNOs for the next 14.0 days since TLE Epoch: 8/26/2022
Index Date Time (GOES-17) GOES-17 Lat,Lon NOAA-20 Lat,Lon Distance(km) Time Diff (sec)
1 08/27/2022 10:45:47 0.07,-137.32 0.60,-139.78 279.83 80
2 08/28/2022 10:24:22 0.07,-137.32 -0.39,-135.24 236.40 80
3 08/29/2022 22:46:20 -0.07,-137.32 -0.79,-140.56 368.80 80
4 08/30/2022 22:30:15 -0.07,-137.32 0.20,-136.02 147.11 80
5 09/01/2022 10:49:24 0.07,-137.31 0.94,-141.31 454.61 80
6 09/02/2022 10:33:20 0.07,-137.31 -0.05,-136.77 60.63 80
7 09/04/2022 22:33:53 -0.06,-137.27 -0.13,-137.55 31.96 80
8 09/05/2022 22:17:48 -0.06,-137.26 0.86,-133.02 482.39 80
9 09/07/2022 10:36:58 0.05,-137.24 0.27,-138.30 121.54 80
10 09/08/2022 10:20:53 0.04,-137.22 -0.72,-133.77 392.60 80
